Simultaneous Nadir Overpasses (SNOs) Predictions

Prediction of SNOs between GOES-15 and METOP-A Satellite Orbit:

Table of predicted SNOs for the next 14.0 days since TLE Epoch: 6/30/2017
Index Date Time (GOES-15) GOES-15 Lat,Lon METOP-A Lat,Lon Distance(km) Time Diff (sec)
1 07/02/2017 06:35:30 0.13,-135.42 -0.11,-136.38 109.96 80
2 07/03/2017 06:12:11 0.14,-135.42 1.02,-131.39 458.28 80
3 07/04/2017 18:33:41 -0.12,-135.46 0.01,-135.95 56.86 80
4 07/07/2017 06:32:01 0.12,-135.38 0.06,-135.55 19.62 80
5 07/09/2017 18:27:32 -0.12,-135.40 -0.17,-135.12 31.50 80
6 07/11/2017 06:49:11 0.09,-135.32 -0.89,-139.71 499.92 80
7 07/12/2017 06:25:51 0.12,-135.31 0.25,-134.72 66.74 80
8 07/13/2017 18:47:22 -0.09,-135.33 0.78,-139.28 450.17 80
9 07/14/2017 18:24:02 -0.11,-135.30 -0.36,-134.29 116.18 80




NCC Satellite Simultaneous Nadir Overpasses (SNOs) Prediction Service
